Location: Amon Carter Post Office
(32.8281°N, 97.0484°W)
Time: 11:12:07
(UTC+00:00)

Sich 1 - Pass Details

Date: 08 July 2022
Orbit: 593 x 623 km, 82.5° (Epoch: 09 August)

Event Time Altitude Azimuth Distance (km) Brightness Sun altitude
Exits shadow 09:59:20 26° 257° (WSW) 1,197 4.0 -16.0°
Maximum altitude 10:00:18 28° 281° (W) 1,124 4.1 -15.9°
Drops below altitude 10° 10:04:01 10° 341° (NNW) 1,937 5.9 -15.3°
Sets 10:06:28 0° 353° (N) 2,839 6.9 -14.9°
